Theta_e
312 312 312 312 310 307 308 314 307 320 322 308 310 304 306 300 304 307 305 304 302 301 301 299 298 298 301 305 305 300 303 299 293 295 302 304 303 300 299 292 291 295 293 292
311 312 312 312 311 308 305 308 309 320 319 301 305 307 305 305 303 304 303 302 303 304 300 296 299 299 304 304 303 301 302 296 290 292 298 301 298 300 300 299 297 292 289 292
311 311 312 311 310 309 307 308 303 310 311 310 305 303 301 302 306 302 303 302 303 301 299 301 297 298 302 304 303 305 303 297 292 287 292 296 294 297 299 296 291 292 293 295
310 311 311 311 310 309 307 309 305 307 301 304 304 303 301 299 298 303 303 300 300 299 295 297 297 299 300 302 303 303 301 290 293 294 295 295 295 294 295 294 296 291 295 294
309 310 310 311 311 308 307 303 303 306 302 304 302 298 299 298 299 298 298 298 299 299 295 296 293 296 297 296 301 298 301 290 293 291 294 294 292 294 295 296 296 296 297 296
309 309 309 310 311 308 308 309 311 304 301 302 299 301 300 299 299 300 301 299 297 296 298 301 301 302 301 300 297 296 295 291 291 286 293 292 289 295 296 297 298 297 293 298
308 308 309 309 310 310 309 309 306 301 296 300 300 299 299 298 299 297 300 300 298 301 306 304 303 301 300 300 299 299 293 291 290 286 289 281 293 300 300 297 298 299 299 300
308 308 308 308 309 311 310 310 306 302 296 299 300 299 299 299 299 298 299 300 303 305 301 295 293 295 296 298 299 298 299 295 286 283 285 290 293 297 296 296 295 301 300 301
307 308 308 307 308 309 309 311 312 305 297 298 301 299 299 296 296 297 299 303 305 302 296 292 287 287 291 292 294 300 298 297 287 286 283 281 294 300 302 300 290 303 302 301
306 307 308 306 306 308 306 308 314 307 298 301 302 298 297 300 297 295 298 298 298 301 293 290 287 288 294 289 289 290 290 288 284 284 284 289 298 301 303 288 292 302 302 302
306 307 307 306 306 306 307 305 311 307 300 301 304 303 299 299 297 292 297 296 296 296 290 290 290 290 294 293 294 292 291 288 286 286 284 283 301 300 293 299 303 303 302 302
305 305 305 305 305 306 308 302 311 308 301 300 307 308 309 306 305 299 298 298 296 298 294 293 293 291 293 292 287 298 290 294 291 292 292 301 302 302 306 305 302 302 302 302
305 305 305 306 306 307 307 307 305 302 296 297 300 301 308 311 310 311 297 297 299 298 302 297 294 289 293 288 290 293 297 299 293 295 298 299 301 304 304 303 303 303 303 302
304 305 305 305 306 307 307 305 305 304 298 290 297 309 306 311 311 309 307 303 303 302 301 293 291 288 296 292 293 292 295 296 295 295 298 300 301 302 302 302 303 302 303 302
304 304 304 305 306 308 308 309 307 308 299 292 295 302 308 308 308 305 305 303 300 295 291 290 288 293 293 295 294 292 297 296 294 293 298 299 299 302 303 301 300 301 300 300
304 305 306 306 307 307 305 298 306 309 305 294 290 305 304 306 307 304 302 302 301 298 291 290 293 297 293 289 289 296 300 300 302 299 301 301 301 302 302 301 302 302 301 301
304 305 306 306 307 306 300 298 303 307 305 293 289 296 303 306 304 302 299 302 300 297 291 289 291 293 295 291 287 295 298 300 301 302 300 297 299 298 302 303 303 303 301 302
306 305 305 306 306 304 301 306 305 305 299 296 288 294 297 304 297 296 301 296 294 292 291 292 293 296 293 288 295 298 300 301 300 300 301 300 301 302 301 302 302 300 299 299
305 305 305 304 302 298 300 306 305 305 299 292 293 292 290 301 299 300 296 294 287 293 289 291 293 291 289 293 297 299 300 298 297 299 300 300 299 299 300 300 299 298 297 297
305 303 298 292 298 306 304 298 294 293 293 293 290 297 291 298 299 295 293 292 289 286 290 296 290 289 296 299 300 300 299 299 299 297 296 297 297 297 298 298 299 298 297 296
303 295 293 298 302 297 293 288 289 290 288 293 294 295 291 300 292 292 296 290 291 287 290 291 289 291 297 301 301 301 300 300 301 301 299 299 298 297 297 298 297 297 296 292
299 297 299 298 293 290 288 288 291 290 289 295 292 293 295 297 299 294 294 289 290 285 293 290 288 295 299 299 298 299 300 300 300 300 298 298 299 299 298 297 297 297 295 292
299 295 291 291 290 285 285 285 288 289 294 296 296 292 296 296 297 294 290 286 287 297 290 289 293 297 297 298 299 299 301 300 300 298 298 299 299 298 298 297 297 296 293 291
292 289 285 287 287 290 293 293 294 298 298 296 296 292 292 293 290 290 286 291 294 288 287 288 294 297 298 298 300 299 298 298 298 297 298 297 296 297 297 297 296 294 292 290
290 291 286 290 296 299 299 300 299 299 299 297 293 291 292 289 288 291 290 289 287 289 286 293 296 298 299 299 299 297 297 297 297 298 297 296 297 296 296 296 295 293 292 289
291 291 290 296 296 296 298 299 296 299 298 296 297 290 288 288 290 289 288 288 287 290 295 297 298 299 300 300 298 297 298 298 298 297 296 297 296 295 295 295 294 293 292 289
290 290 297 296 298 296 298 301 299 301 295 291 291 287 288 294 290 289 294 292 294 297 298 300 301 300 299 298 297 298 299 298 297 297 297 297 297 296 294 293 294 292 292 291
Wind_Speed
17 16 17 18 18 24 12 7 4 7 5 7 7 9 9 4 5 0 5 4 6 7 7 5 6 5 4 3 8 8 8 4 8 16 22 18 17 19 13 10 9 12 11 9
16 16 16 17 16 13 8 6 7 6 6 6 4 10 3 4 3 4 5 4 3 7 7 5 5 2 7 7 4 4 2 2 7 10 14 6 9 14 13 13 8 17 14 12
16 16 15 16 15 10 7 6 4 6 7 9 8 9 3 4 8 4 4 5 4 8 8 7 5 6 3 2 3 8 3 9 10 10 19 11 12 13 15 10 6 11 18 22
16 16 15 16 17 12 5 6 2 4 3 3 7 4 8 5 3 4 4 4 3 6 5 8 10 13 9 4 11 6 3 7 11 16 20 22 24 24 20 22 22 21 18 24
15 16 16 16 17 21 5 5 6 7 9 5 6 4 5 3 4 1 3 3 6 4 7 12 15 16 13 10 6 6 4 3 9 15 18 21 26 25 26 27 24 25 26 26
12 14 14 15 14 13 5 8 6 4 7 6 6 1 5 4 3 6 3 4 5 8 8 6 10 14 14 12 11 11 6 3 7 14 16 18 16 19 23 23 22 23 21 20
12 12 13 13 13 8 7 7 7 6 9 9 7 5 3 5 7 6 11 11 7 9 10 11 16 20 21 20 15 13 8 5 3 7 14 14 10 8 7 12 10 13 14 13
13 10 9 12 11 12 7 7 5 5 7 10 9 7 6 3 2 11 7 2 5 6 9 8 10 13 15 20 20 16 18 12 3 4 9 18 24 20 14 15 12 3 12 12
12 12 7 9 11 11 5 6 6 4 3 1 12 10 5 6 6 6 5 6 4 4 4 3 6 5 13 4 6 4 2 10 5 3 6 6 4 4 5 10 10 13 15 12
11 12 6 6 8 9 2 4 7 4 4 5 7 3 6 0 4 7 5 4 1 2 2 3 6 10 12 9 5 6 4 2 7 8 6 9 10 3 2 8 4 7 8 12
11 9 6 5 7 7 2 3 5 4 3 9 11 9 8 5 3 4 3 6 4 2 4 2 3 4 4 6 4 5 7 6 5 5 6 9 15 10 6 6 10 8 11 13
8 8 7 6 7 7 4 2 1 2 2 6 12 13 14 10 9 4 4 4 2 1 2 3 4 5 5 11 6 2 4 7 3 7 4 4 9 10 11 6 7 9 11 12
8 9 9 8 6 8 7 4 3 2 2 6 11 12 13 17 16 8 5 3 3 4 3 2 3 6 8 8 9 12 7 7 4 7 5 7 10 7 12 13 16 12 13 16
9 8 8 8 8 9 8 4 5 1 1 3 6 5 9 10 9 11 12 3 3 3 3 2 2 4 7 7 9 12 10 8 13 16 8 14 13 10 6 9 12 14 15 16
9 9 9 11 11 9 5 5 5 7 3 2 5 14 15 8 12 12 9 7 6 2 3 2 3 6 8 9 11 13 10 9 6 4 5 5 11 12 13 13 15 14 14 17
10 10 11 10 9 6 3 2 3 8 4 2 3 5 10 6 13 9 10 6 5 1 2 2 4 9 5 5 8 4 3 3 11 5 8 9 10 11 15 15 13 13 15 17
10 11 9 9 7 5 3 2 2 8 5 2 3 6 5 14 9 6 4 7 2 2 2 3 4 10 4 4 12 17 16 6 7 7 10 10 10 13 14 13 8 12 16 17
11 9 9 10 12 2 3 1 12 5 3 2 3 4 5 10 5 5 4 3 2 3 2 3 6 3 4 6 13 15 10 6 6 6 7 9 12 13 11 12 13 15 16 16
6 10 8 0 1 2 1 12 7 2 1 2 4 4 0 4 6 5 3 2 2 3 4 4 4 4 7 10 9 7 3 5 7 9 10 10 11 13 14 15 15 16 17 16
7 3 1 1 2 18 8 3 1 1 1 2 4 6 4 2 4 4 5 3 3 4 6 3 3 6 14 13 4 3 5 4 6 7 10 12 13 14 14 14 14 15 15 15
2 1 1 1 3 2 2 2 3 3 4 6 5 8 5 2 3 2 3 3 1 3 3 4 4 4 3 5 4 3 3 5 7 7 9 11 12 13 13 14 14 14 15 13
3 4 2 1 1 1 3 3 4 6 5 6 4 2 3 1 2 1 1 1 2 5 4 4 4 4 7 5 3 2 3 4 5 8 10 11 12 12 12 13 13 14 13 12
1 1 3 3 3 5 6 7 5 5 6 5 6 3 2 2 1 0 1 4 6 4 4 4 3 8 6 3 0 3 3 6 9 11 10 10 12 13 12 13 12 13 13 11
1 3 4 5 5 7 6 0 4 5 6 5 7 4 1 2 3 2 4 6 3 4 4 3 5 6 5 3 5 6 9 10 10 10 10 12 12 12 13 12 13 13 11 11
2 3 5 8 8 3 5 7 8 8 7 5 4 3 2 2 3 5 5 4 5 2 2 5 7 6 5 3 10 9 8 8 9 8 10 11 11 12 12 13 13 12 11 11
3 4 6 5 7 5 4 5 8 6 6 2 2 3 2 4 4 4 6 2 3 1 4 7 5 5 7 9 8 6 7 9 8 8 10 10 12 13 13 13 13 13 12 10
4 5 7 9 7 2 4 4 7 8 4 2 1 3 5 3 4 3 1 2 4 2 7 7 6 6 8 8 7 6 7 9 7 9 11 11 12 12 12 14 12 12 13 8
Wind_Direction
324 327 327 329 336 334 332 290 247 127 189 236 229 249 310 349 293 57 260 275 280 304 356 306 316 292 314 16 323 317 11 319 273 277 291 287 263 280 240 261 248 253 274 266
324 324 328 330 337 5 320 280 298 142 224 249 251 301 222 119 325 339 333 321 55 354 330 318 280 321 36 73 330 24 7 309 288 275 244 252 291 284 268 333 322 253 263 265
320 321 325 327 328 348 320 278 267 170 203 268 290 324 275 147 130 286 326 314 327 288 275 231 281 270 162 283 189 102 85 261 249 265 292 302 261 275 289 282 257 275 256 278
318 323 328 327 323 331 293 249 8 32 308 62 334 334 321 287 226 91 352 261 214 356 306 300 248 265 287 234 157 173 239 249 262 276 283 284 284 284 268 254 262 261 274 273
319 322 328 330 328 327 236 309 347 348 278 322 277 210 229 295 66 295 276 218 310 354 306 288 300 310 311 294 279 185 177 276 266 267 268 266 263 264 266 264 264 256 263 268
315 318 324 333 337 334 306 346 343 279 298 256 256 292 44 74 348 279 245 354 287 283 319 336 296 286 273 254 279 290 155 228 276 276 285 298 285 257 251 256 259 265 266 278
307 313 326 326 342 337 307 319 309 285 281 272 292 41 329 280 359 321 331 323 307 351 337 307 275 259 250 252 233 214 231 249 281 293 302 268 275 312 292 283 293 291 304 304
303 306 320 332 334 335 296 305 322 331 313 308 295 238 217 272 303 264 272 320 47 360 310 302 282 253 222 238 231 212 205 223 233 245 254 284 287 277 292 318 285 355 302 356
299 303 292 324 334 340 297 303 315 305 314 190 348 336 47 305 298 291 67 74 32 340 287 266 267 297 326 152 130 96 82 209 182 187 255 278 40 354 312 331 264 30 357 343
297 294 282 307 323 334 268 304 339 292 279 280 2 14 326 271 269 287 343 8 15 252 269 267 269 264 273 284 160 187 154 138 226 235 254 269 291 204 281 243 9 352 300 322
298 289 296 312 310 317 231 297 312 305 307 299 301 292 287 281 285 275 23 272 199 216 232 267 308 295 291 274 337 251 222 190 194 203 240 246 9 342 295 351 325 329 338 340
291 284 284 287 287 293 240 269 345 12 252 306 322 293 286 289 267 224 209 307 297 59 250 258 275 279 298 308 287 288 263 227 223 207 249 280 279 293 291 337 332 316 331 330
289 286 287 290 278 283 266 261 130 73 302 274 251 261 250 228 228 213 224 254 306 245 351 303 267 268 302 288 287 307 276 282 222 276 264 291 283 278 27 346 310 349 334 323
289 294 303 298 294 290 278 247 174 178 1 273 285 279 277 172 185 179 197 189 13 37 2 29 289 271 282 286 290 287 279 265 267 278 335 341 51 1 313 284 333 324 317 327
286 290 292 290 296 299 281 251 195 213 221 294 307 314 258 215 167 186 181 201 193 147 178 179 238 277 286 275 276 269 282 306 305 303 2 311 313 316 353 335 328 328 329 324
286 290 290 294 302 326 274 259 198 190 146 267 285 278 224 197 169 175 165 197 199 115 130 197 224 241 264 277 270 317 261 301 285 324 314 303 328 335 334 318 324 322 332 319
282 287 293 290 289 295 230 321 9 158 134 154 262 245 209 166 149 133 170 188 145 137 158 226 241 253 206 250 263 277 298 272 271 17 12 338 338 310 294 297 322 347 315 297
287 295 295 287 278 211 218 163 139 136 98 215 253 267 190 163 175 134 30 114 128 160 206 231 250 281 186 251 255 263 288 292 27 356 354 303 286 294 310 342 342 321 328 340
299 311 279 64 216 162 107 113 101 41 292 233 238 264 58 303 176 111 123 123 201 174 221 233 180 212 223 239 273 319 337 24 359 342 303 306 342 341 341 347 339 336 339 336
292 258 219 98 266 117 120 49 99 41 190 244 260 256 241 260 177 150 148 180 224 219 213 201 233 257 255 258 298 342 36 5 337 321 335 352 341 341 344 337 345 344 339 5
197 122 81 53 294 59 353 147 216 162 226 205 238 243 234 304 264 128 239 165 214 261 148 227 225 250 105 104 123 80 27 351 300 311 2 354 341 336 336 346 349 347 6 14
84 103 73 71 56 246 224 193 194 210 242 174 183 138 145 76 359 246 359 259 198 250 164 235 241 91 116 95 81 20 300 278 323 5 9 348 342 341 353 354 356 357 20 32
73 113 164 206 159 230 229 192 187 196 185 158 150 120 86 115 87 123 185 236 234 169 216 230 71 113 98 129 215 255 269 36 18 19 3 350 351 358 1 8 358 13 19 35
210 200 188 227 192 235 235 219 132 99 107 110 103 102 127 103 192 195 238 235 252 234 224 64 112 122 129 104 259 44 41 29 28 9 12 5 3 2 15 11 9 20 24 27
260 257 249 219 246 249 256 143 105 100 108 115 110 112 203 171 236 216 234 232 231 31 17 107 98 124 172 133 54 40 35 32 31 16 26 10 10 16 17 24 24 27 28 27
240 233 267 294 288 288 357 97 112 109 109 100 198 136 213 216 235 222 232 322 40 60 125 112 150 127 89 70 68 53 41 45 34 33 33 18 29 23 23 23 29 30 27 26
241 243 242 256 271 195 213 156 110 117 136 124 179 229 226 224 236 228 118 103 113 347 102 110 96 103 90 84 78 64 56 55 41 42 44 27 41 32 28 25 34 42 15 40